Content
SEND FEEDBACK

Daily
Averages
Monthly
Summary
United States of America

AGAT, GUAM


Home > North America > United States > Guam
Elevation: 364 feet     Latitude: 13 33N     Longitude: 144 50E

WEATHER
 
SELECT A DAY
Number of Records: 213,057;   Date Range: 1/1/95 - 9/29/14
 
SHARE

PRINT THIS DATA

[ ← Previous Day ]
WEATHER ALMANAC - APRIL 16, 2014
[ Next Day → ]
[ °C ]   °F
Weather ElementAverageHighLow
Temperature83 °F91 °F (2:54 pm)78.1 °F (4:54 am)
Dewpoint76.1 °F78.8 °F (1:39 am)73.4 °F (2:14 pm)
Humidity80.5 %97 % (6:54 am)61 % (2:54 pm)
Barometer29.80 in29.85 in (10:06 am)29.73 in (2:54 pm)
Wind Speed7.5 mph13.8 mph (3:54 pm)
Wind Gust18.4 mph (11:03 pm)
Weather ElementAverage
Visibility9.9 mi
Wind DirectionESE (102.3 °)

Weather ElementTotal
Precipitation---
Cooling Degree Days19.6 (Base 65)
Growing Degree Days34.6 (Base 50)
Averaged from 39 records on April 16, 2014
WEATHER CONDITIONS BREAKOUT
WIND DIRECTION BREAKOUT
WEATHER BY HOUR - APRIL 16, 2014
[ °C ]   °F
Local TimeTemperatureDewpointHumidityBarometerVisibilityWind DirectionWind SpeedGust SpeedPrecipitationEventsConditions
1:39 AM80.6 °F78.8 °F94 %29.82 in10.0 miNE (40°)5.8 mphMostly Cloudy
1:46 AM78.8 °F77.0 °F94 %29.82 in10.0 miNE (50°)5.8 mphMostly Cloudy
1:54 AM79.0 °F77.0 °F94 %29.80 in10.0 miNE (50°)4.6 mphScattered Clouds
2:34 AM78.8 °F75.2 °F89 %29.81 in10.0 miNE (50°)6.9 mphMostly Cloudy
2:41 AM78.8 °F75.2 °F89 %29.80 in10.0 miNE (50°)5.8 mphScattered Clouds
2:54 AM79.0 °F75.9 °F90 %29.78 in10.0 miENE (60°)5.8 mphPartly Cloudy
3:54 AM79.0 °F75.9 °F90 %29.78 in10.0 miCalmClear
4:54 AM78.1 °F75.9 °F93 %29.79 in10.0 miCalmClear
5:54 AM78.1 °F75.0 °F90 %29.81 in10.0 miCalmPartly Cloudy
6:28 AM78.8 °F75.2 °F89 %29.83 in10.0 miCalmMostly Cloudy
6:54 AM79.0 °F78.1 °F97 %29.81 in10.0 miCalmOvercast
7:36 AM80.6 °F78.8 °F94 %29.84 in10.0 miCalmScattered Clouds
7:54 AM82.9 °F77.0 °F82 %29.82 in10.0 miNE (50°)4.6 mphScattered Clouds
8:54 AM84.9 °F75.9 °F74 %29.83 in10.0 miENE (70°)5.8 mphScattered Clouds
9:54 AM82.9 °F77.0 °F82 %29.83 in10.0 miNNW (330°)8.1 mphOvercast
10:06 AM84.2 °F77.0 °F79 %29.85 in10.0 miNNW (340°)4.6 mphOvercast
10:54 AM84.0 °F78.1 °F82 %29.81 in10.0 miNNW (340°)10.4 mph0.00 inRainLight Rain
11:37 AM84.2 °F77.0 °F79 %29.82 in10.0 miNorth (350°)9.2 mph0.00 inOvercast
11:46 AM84.2 °F77.0 °F79 %29.82 in10.0 miNorth (350°)10.4 mph0.00 inOvercast
11:54 AM84.9 °F77.0 °F77 %29.79 in10.0 miNorth (360°)11.5 mph0.00 inOvercast
12:38 PM87.8 °F75.2 °F66 %29.79 in10.0 miNE (40°)12.7 mphMostly Cloudy
12:54 PM89.1 °F75.0 °F63 %29.76 in10.0 miENE (60°)11.5 mphScattered Clouds
1:54 PM87.1 °F75.9 °F69 %29.74 in10.0 miNorth (350°)11.5 mphMostly Cloudy
2:14 PM87.8 °F73.4 °F62 %29.76 in10.0 miNNE (30°)9.2 mphMostly Cloudy
2:25 PM89.6 °F75.2 °F62 %29.76 in10.0 miNNE (30°)11.5 mphMostly Cloudy
2:54 PM91.0 °F75.9 °F61 %29.73 in10.0 miNE (40°)12.7 mphScattered Clouds
3:45 PM87.8 °F75.2 °F66 %29.75 in10.0 miENE (70°)11.5 mphMostly Cloudy
3:54 PM87.1 °F73.9 °F65 %29.73 in10.0 miENE (70°)13.8 mphMostly Cloudy
4:08 PM86.0 °F73.4 °F66 %29.75 in10.0 miNE (50°)11.5 mphMostly Cloudy
4:54 PM87.1 °F73.9 °F65 %29.73 in10.0 miNE (40°)13.8 mphClear
5:54 PM84.9 °F75.0 °F72 %29.75 in10.0 miENE (70°)12.7 mphClear
6:54 PM82.9 °F75.9 °F79 %29.78 in10.0 miENE (70°)10.4 mphPartly Cloudy
7:54 PM82.0 °F77.0 °F85 %29.79 in10.0 miENE (70°)6.9 mphClear
8:54 PM82.0 °F75.9 °F82 %29.81 in10.0 miEast (80°)9.2 mphClear
9:54 PM82.0 °F77.0 °F85 %29.82 in10.0 miEast (90°)4.6 mphPartly Cloudy
10:54 PM80.1 °F77.0 °F90 %29.83 in10.0 miEast (100°)6.9 mph0.00 inRainLight Rain
11:03 PM80.6 °F75.2 °F84 %29.85 in8.0 miENE (70°)12.7 mph18.4 mph0.00 inRainRain
11:12 PM80.6 °F77.0 °F89 %29.84 in9.0 miEast (80°)8.1 mph0.00 inRainLight Rain
11:54 PM80.1 °F77.0 °F90 %29.81 in10.0 miEast (90°)3.5 mph0.00 inOvercast
Hourly data recorded from PGUM, located miles away from Agat, Guam







STORIES FROM OUR PARTNERS